#timestamp,LO_Frequency,Hit,StdDev 
1508065215.9,286047006.8,N
1508065235.7,286047006.3,N
1508065255.5,286047008.1,N
1508065275.3,286047012.0,N
1508065295.2,286047012.0,N
1508065315.0,286047011.7,N
1508065315.9,286047011.7,N
1508065335.7,286047013.8,N
1508065355.6,286047006.2,N
1508065375.4,286047002.6,N
1508065395.2,286047001.8,N
1508065415.1,286047005.2,N
1508065416.0,286047005.2,N
1508065435.8,286047010.1,N
1508065455.6,286047013.7,N
1508065475.5,286047008.3,N
1508065495.3,286047012.3,N
1508065515.1,286047011.7,N
1508065535.9,286047013.3,N
1508065555.7,286047009.8,N
1508065575.5,286047011.7,N
1508065595.4,286047009.5,N
1508065615.2,286047013.3,N
1508065635.0,286047016.2,N
1508065635.9,286047016.2,N
1508065655.7,286047014.5,N
1508065675.6,286047015.5,N
1508065695.4,286047016.6,Y
1508065715.2,286047010.2,P
1508065735.2,286047006.6,P
1508065755.0,286047003.7,N
1508065755.9,286047003.7,N
1508065775.8,286046997.6,N
1508065795.6,286046998.8,N
1508065815.4,286047001.0,N
1508065835.3,286047004.6,N
1508065855.1,286047006.2,N
1508065856.0,286047006.2,N
1508065875.8,286047005.5,N
1508065895.6,286047005.7,N
1508065915.5,286047008.7,N
1508065935.3,286047004.8,N
1508065955.1,286046997.1,N
1508065975.9,286046998.6,N
1508065995.7,286046998.9,N
1508066015.5,286046999.2,N
1508066035.4,286046990.8,N
1508066055.2,286046987.9,N
1508066075.0,286046989.1,N
1508066075.9,286046989.1,N
1508066095.8,286046988.9,N
1508066115.6,286046984.3,N
1508066135.4,286046983.5,N
1508066155.3,286046979.4,N
1508066175.1,286046983.5,N
1508066176.0,286046983.5,N
1508066195.8,286046984.4,N
1508066215.7,286046977.3,N
1508066235.5,286046978.2,N
1508066255.3,286046977.6,N
1508066275.1,286046980.7,N
1508066295.9,286046984.3,N
1508066315.7,286046987.6,N
1508066335.5,286046989.9,N
1508066355.4,286046994.3,N
1508066375.2,286046995.6,N
1508066395.0,286046992.2,N
1508066395.9,286046992.2,N
1508066415.8,286046992.4,N
1508066435.6,286046990.7,N
1508066455.4,286046987.2,N
1508066475.3,286046982.7,N
1508066495.1,286046976.1,Y
1508066515.8,286046987.0,P
1508066535.7,286046990.7,P
1508066555.5,286046993.1,P
1508066575.3,286046994.6,N
1508066595.2,286046992.9,N
1508066615.9,286046990.9,Y
1508066635.7,286047003.8,P
1508066655.6,286047009.4,N
1508066675.4,286047012.8,N
1508066695.2,286047013.3,N
1508066715.1,286047008.3,N
1508066716.0,286047008.3,N
1508066735.8,286047001.7,N
1508066755.6,286047003.6,N
1508066775.5,286047000.6,N
1508066795.3,286047002.6,N
1508066815.1,286047001.7,N
1508066835.8,286047003.7,N
1508066855.7,286047002.2,N
1508066875.5,286047005.7,N
1508066895.3,286047003.1,N
1508066915.2,286046998.8,N
1508066935.9,286046996.9,N
1508066955.7,286046997.9,N
1508066975.6,286046997.0,N
1508066995.4,286046998.3,N
1508067015.2,286047001.1,N
1508067035.1,286046998.8,N
1508067036.0,286046998.8,N
1508067055.8,286046997.0,N
1508067075.6,286046999.8,N
1508067095.4,286047002.5,N
1508067115.3,286047002.8,N
1508067135.1,286047001.0,N
1508067155.8,286046997.2,N
1508067175.7,286046996.5,N
1508067195.5,286046995.8,N
1508067215.3,286046994.7,N
1508067235.2,286046992.9,N
1508067255.9,286046990.6,N
1508067275.7,286046989.6,N
1508067295.6,286046990.2,N
1508067315.4,286046991.4,N
1508067335.2,286046988.6,N
1508067355.1,286046988.7,N
1508067356.0,286046988.7,N
1508067375.8,286046987.7,N
1508067395.6,286046988.0,N
1508067415.4,286046988.8,N
1508067435.3,286046991.5,N
1508067455.1,286046993.1,N
1508067475.8,286046993.2,N
1508067495.7,286046990.4,N
1508067515.5,286046989.5,N
1508067535.3,286046985.4,Y
1508067555.2,286046991.1,P
1508067575.9,286046988.8,P
1508067595.7,286046992.0,P
1508067615.6,286046994.8,N
1508067635.4,286046995.5,N
1508067655.2,286046998.8,N
1508067675.1,286046998.0,N
1508067676.0,286046998.0,N
1508067695.8,286046999.7,N
1508067715.6,286047004.9,N
1508067735.5,286047006.4,N
1508067755.3,286047007.8,N
1508067775.1,286047009.0,N
1508067795.8,286047006.9,N
1508067815.7,286047010.7,N
1508067835.5,286047004.9,N
1508067855.3,286047004.7,N
1508067875.2,286047003.4,N
1508067895.0,286046999.8,N
1508067895.9,286046999.8,N
1508067915.7,286047002.3,N
1508067935.6,286047000.9,N
1508067955.4,286046998.6,N
1508067975.2,286046997.8,N
1508067995.1,286046993.8,N
1508067996.0,286046993.8,N
1508068015.8,286046994.3,N
1508068035.6,286046997.6,N
1508068055.5,286047003.3,N
1508068075.3,286047007.5,N
1508068095.1,286047005.7,N
1508068115.9,286047001.3,N
1508068135.7,286047008.2,N
1508068155.5,286047011.2,N
1508068175.4,286047016.8,Y
1508068195.2,286047014.3,P
1508068215.0,286047018.8,P
1508068215.9,286047018.8,N
1508068235.8,286047017.8,N
1508068255.6,286047016.7,N
1508068275.4,286047021.2,Y
1508068295.3,286047004.9,P
1508068315.1,286047001.5,N
1508068316.0,286047001.5,N
1508068335.8,286047007.6,N
1508068355.7,286047007.1,N
1508068375.5,286047000.5,N
1508068395.3,286047004.3,N
1508068415.1,286047002.7,N
1508068435.9,286047000.1,N
1508068455.7,286046999.3,N
1508068475.5,286046996.5,N
1508068495.4,286046997.9,N
1508068515.2,286046995.1,N
1508068535.0,286047000.2,N
1508068535.9,286047000.2,N
1508068555.8,286046998.5,N
1508068575.6,286046996.0,N
1508068595.4,286046997.6,N
1508068615.3,286046993.7,N
1508068635.1,286046994.5,N
1508068636.0,286046994.5,N
1508068655.8,286046990.7,N
1508068675.7,286046996.0,N
1508068695.5,286046992.2,N
1508068715.3,286046991.3,N
1508068735.2,286046987.2,N
1508068755.9,286046980.6,Y
1508068775.7,286046981.7,P
1508068795.6,286046977.4,N
